Вернуться в каталог

COSMOS 2251 DEB

АктивенLEO
NORAD 33975·DEBRIS·🇷🇺 Russia

Запущен Jun 16, 1993 с Plesetsk Cosmodrome

Loading…

Ближайшие Пролёты (ближайшие 24 часа)

TLE

СвежийSource: Space-Track

Эпоха: Sep 13, 2026, 21:44 UTC

1 33975U 93036FJ  26256.90613903  .00000235  00000-0  14857-3 0  9998
2 33975  73.8020 320.5948 0189546  45.4975 316.1472 14.00863741896828

Отслеживайте COSMOS 2251 DEB в реальном времени с AllMySat

Download on the App Store